TimePST,TemperatureF,Dew PointF,Humidity,Sea Level PressureIn,VisibilityMPH,Wind Direction,Wind SpeedMPH,Gust SpeedMPH,PrecipitationIn,Events,Conditions,WindDirDegrees,DateUTC
12:53 AM,37.9,34.0,86,29.57,8.0,Calm,Calm,-,N/A,,Overcast,0,2012-11-30 08:53:00
1:41 AM,37.4,33.8,87,29.54,5.0,ESE,5.8,-,0.00,,Overcast,120,2012-11-30 09:41:00
1:53 AM,37.9,34.0,86,29.56,4.0,Calm,Calm,-,0.00,,Overcast,0,2012-11-30 09:53:00
2:31 AM,37.4,33.8,87,29.52,5.0,Calm,Calm,-,N/A,,Overcast,0,2012-11-30 10:31:00
2:51 AM,37.4,33.8,87,29.52,1.8,SSW,3.5,-,N/A,,Overcast,210,2012-11-30 10:51:00
2:53 AM,37.0,34.0,89,29.55,1.2,SW,3.5,-,N/A,,Overcast,230,2012-11-30 10:53:00
3:01 AM,37.4,33.8,87,29.51,1.0,West,4.6,-,N/A,,Overcast,280,2012-11-30 11:01:00
3:07 AM,37.4,33.8,87,29.51,2.0,NW,3.5,-,N/A,,Overcast,320,2012-11-30 11:07:00
3:13 AM,37.4,33.8,87,29.51,3.0,Calm,Calm,-,N/A,,Overcast,0,2012-11-30 11:13:00
3:53 AM,37.0,34.0,89,29.53,4.0,Calm,Calm,-,N/A,,Overcast,0,2012-11-30 11:53:00
4:42 AM,37.4,33.8,87,29.50,4.0,Calm,Calm,-,N/A,,Overcast,0,2012-11-30 12:42:00
4:53 AM,37.0,33.1,86,29.52,5.0,Calm,Calm,-,N/A,,Overcast,0,2012-11-30 12:53:00
5:42 AM,37.4,33.8,87,29.51,4.0,NNE,3.5,-,N/A,,Overcast,30,2012-11-30 13:42:00
5:53 AM,37.0,33.1,86,29.53,4.0,NNE,3.5,-,N/A,,Overcast,30,2012-11-30 13:53:00
6:09 AM,35.6,32.0,87,29.50,2.0,NNE,4.6,-,N/A,,Overcast,20,2012-11-30 14:09:00
6:16 AM,37.4,33.8,87,29.50,1.5,NNE,4.6,-,N/A,,Overcast,20,2012-11-30 14:16:00
6:29 AM,35.6,33.8,93,29.50,1.0,North,4.6,-,N/A,,Overcast,360,2012-11-30 14:29:00
6:37 AM,35.6,33.8,93,29.50,1.5,NNE,3.5,-,N/A,,Overcast,20,2012-11-30 14:37:00
6:43 AM,35.6,33.8,93,29.50,3.0,North,3.5,-,N/A,,Overcast,10,2012-11-30 14:43:00
6:53 AM,37.0,33.1,86,29.54,5.0,Calm,Calm,-,N/A,,Overcast,0,2012-11-30 14:53:00
7:04 AM,37.4,33.8,87,29.51,4.0,Calm,Calm,-,N/A,,Overcast,0,2012-11-30 15:04:00
7:15 AM,37.4,33.8,87,29.51,1.8,Calm,Calm,-,N/A,,Overcast,0,2012-11-30 15:15:00
7:26 AM,37.4,33.8,87,29.51,3.0,Calm,Calm,-,N/A,,Overcast,0,2012-11-30 15:26:00
7:53 AM,37.0,34.0,89,29.55,5.0,Calm,Calm,-,0.00,,Overcast,0,2012-11-30 15:53:00
8:20 AM,37.4,33.8,87,29.51,4.0,Calm,Calm,-,N/A,,Overcast,0,2012-11-30 16:20:00
8:50 AM,37.4,33.8,87,29.52,4.0,SW,5.8,-,N/A,,Overcast,230,2012-11-30 16:50:00
8:51 AM,37.9,34.0,86,29.55,4.0,SW,4.6,-,N/A,,Overcast,220,2012-11-30 16:51:00
9:00 AM,37.4,33.8,87,29.52,2.5,SW,6.9,-,N/A,,Overcast,220,2012-11-30 17:00:00
9:27 AM,39.2,35.6,87,29.53,3.0,SW,3.5,-,N/A,,Overcast,230,2012-11-30 17:27:00
9:53 AM,39.9,35.1,83,29.56,5.0,Calm,Calm,-,N/A,,Haze,0,2012-11-30 17:53:00
10:53 AM,44.1,37.0,76,29.55,7.0,Calm,Calm,-,N/A,,Overcast,0,2012-11-30 18:53:00
11:07 AM,46.4,37.4,71,29.53,10.0,Calm,Calm,-,N/A,,Overcast,0,2012-11-30 19:07:00
11:53 AM,50.0,37.9,63,29.53,10.0,Calm,Calm,-,N/A,,Mostly Cloudy,0,2012-11-30 19:53:00
12:32 PM,51.8,37.4,58,29.52,10.0,SE,3.5,-,N/A,,Mostly Cloudy,130,2012-11-30 20:32:00
12:39 PM,51.8,37.4,58,29.52,10.0,ESE,4.6,-,N/A,,Scattered Clouds,120,2012-11-30 20:39:00
12:53 PM,50.0,37.9,63,29.54,10.0,SSE,5.8,-,N/A,,Partly Cloudy,150,2012-11-30 20:53:00
1:53 PM,51.1,37.9,61,29.54,10.0,SE,6.9,-,N/A,,Overcast,130,2012-11-30 21:53:00
2:53 PM,50.0,37.9,63,29.55,10.0,Variable,3.5,-,N/A,,Scattered Clouds,0,2012-11-30 22:53:00
3:53 PM,48.0,37.0,66,29.55,10.0,NE,4.6,-,N/A,,Clear,50,2012-11-30 23:53:00
4:53 PM,48.9,37.0,64,29.55,10.0,SSE,4.6,-,N/A,,Overcast,160,2012-12-01 00:53:00
5:53 PM,48.0,37.0,66,29.55,10.0,ENE,6.9,-,N/A,,Overcast,70,2012-12-01 01:53:00
7:53 PM,46.9,37.9,71,29.53,10.0,East,6.9,-,N/A,,Overcast,90,2012-12-01 03:53:00
8:53 PM,48.0,37.9,68,29.52,10.0,East,5.8,-,N/A,,Overcast,80,2012-12-01 04:53:00
9:53 PM,46.0,37.9,73,29.52,10.0,East,5.8,-,N/A,,Overcast,90,2012-12-01 05:53:00
10:53 PM,48.9,37.9,66,29.50,10.0,East,10.4,-,N/A,,Overcast,80,2012-12-01 06:53:00
11:53 PM,48.0,37.9,68,29.49,10.0,WSW,4.6,-,N/A,,Overcast,250,2012-12-01 07:53:00